Location: Huesca
(42.1318°N, 0.4078°W)
Time: 14:19:24
(UTC+02:00)

Vanguard 1 - Visible Passes

Search period start: 19 July 2024 00:00
Search period end: 29 July 2024 00:00
Orbit: 650 x 3826 km, 34.3° (Epoch: 15 July)

Date Brightness Start Highest point End Pass type
(mag) Time Alt. Az. Time Alt. Az. Time Alt. Az.
19 Jul 13.6 02:28:58 15° SE 02:34:41 17° SE 02:46:38 10° E visible
19 Jul 13.3 04:41:33 19° SSW 04:57:12 44° SSE 05:17:01 10° E visible
20 Jul 13.4 02:47:26 20° SSE 02:54:01 23° SE 03:09:33 10° E visible
20 Jul 13.2 05:00:01 18° SW 05:17:09 51° SSE 05:37:33 10° E visible
21 Jul 13.2 03:05:52 24° SSE 03:13:26 30° SE 03:31:20 10° E visible
21 Jul 13.1 05:18:27 15° SW 05:37:14 57° SSE 05:57:57 10° E visible
22 Jul 13.1 03:24:16 28° S 03:32:57 37° SE 03:52:32 10° E visible
22 Jul 13.1 05:36:51 12° SW 05:57:26 62° SSE 06:18:16 10° E visible
23 Jul 13.6 01:30:03 15° SE 01:31:08 15° ESE 01:41:04 10° E visible
23 Jul 13.0 03:42:38 29° S 03:52:37 43° SE 04:13:23 10° E visible
23 Jul 13.1 05:55:49 10° WSW 06:17:45 66° SSE 06:38:32 10° E visible
24 Jul 13.3 01:48:23 21° SE 01:50:17 21° SE 02:04:27 10° E visible
24 Jul 12.9 04:00:57 29° SSW 04:12:26 50° SSE 04:34:01 10° E visible
25 Jul 13.1 02:06:41 27° SE 02:09:31 28° SE 02:26:28 10° E visible
25 Jul 12.9 04:19:15 26° SW 04:32:24 56° SSE 04:54:32 10° E visible
26 Jul 12.9 02:24:57 32° SSE 02:28:52 35° SE 02:47:49 10° E visible
26 Jul 12.9 04:37:31 23° SW 04:52:31 61° SSE 05:14:57 10° E visible
27 Jul 13.6 00:30:37 12° ESE 00:30:37 12° ESE 00:34:12 10° ESE visible
27 Jul 12.7 02:43:12 36° S 02:48:23 41° SE 03:08:47 10° E visible
27 Jul 12.9 04:55:46 18° WSW 05:12:45 66° SSE 05:35:20 10° E visible
28 Jul 13.3 00:48:51 18° ESE 00:48:51 18° ESE 00:58:32 10° E visible
28 Jul 12.6 03:01:25 38° S 03:08:03 48° SSE 03:29:32 10° E visible
28 Jul 12.9 05:13:59 13° WSW 05:33:05 68° S 05:55:39 10° E visible
